Terminal Aerodrome Forecast
Issued by NWS

Home | Current Version | Previous Version | Text Only | Print | Product List | Glossary On
Versions: 1 2 3 4 5 6 7 8 9 10 11 12 13 14
000
FTUS45 KABQ 221400 AAB
TAFROW
TAF AMD
KROW 221439Z 2215/2312 28017G26KT P6SM SCT150 BKN200
     FM221700 31020G31KT P6SM SCT120 BKN200
     FM230000 27015KT P6SM FEW050 SCT120
     FM230900 35026G34KT P6SM VCSH OVC025=

USA.gov is the U.S. government's official web portal to all federal, state and local government web resources and services.